287  
ASUS45 KTFX 222210  
RWRMT  
MONTANA REGIONAL WEATHER ROUNDUP  
NATIONAL WEATHER SERVICE GREAT FALLS MT  
400 PM MDT SAT SEP 22 2018  
 
NOTE: "FAIR" INDICATES FEW OR NO CLOUDS BELOW 12000 FEET WITH NO  
SIGNIFICANT WEATHER AND/OR S TO VISIBILITY
.  
 
MTZ001>007-043-222300-  
WEST OF THE DIVIDE  
 
CITY SKY/WX TMP DP RH WIND PRES REMARKS
 
KALISPELL LGT RAIN 57 53 86 SE9 29.93F  
MISSOULA FAIR 69 37 30 NW22G33 29.94R  
BUTTE FAIR 72 22 15 SW13 29.95F  
MULLAN PASS FAIR 45 41 86 VRB7G22 30.03F  
ANACONDA N/A 66 34 30 N10 29.92F  
DEER LODGE N/A 70 34 26 N10 29.94  
LIBBY N/A 64 45 48 SE6 29.90F  
RONAN N/A 66 39 37 S15G24 29.96S  

 
 
MTZ008-052>055-222300-  
SOUTHWEST MONTANA  
 
CITY SKY/WX TMP DP RH WIND PRES REMARKS
 
BOZEMAN FAIR 77 24 14 W7 29.89F  
DILLON FAIR 71 33 24 W16 29.91F  
ENNIS PTSUNNY 75 14 9 S21G31 29.98F  
W YELLOWSTONE FAIR 68 18 14 SW21G29 30.07F  
THREE FORKS N/A 81 30 15 SW7 29.87F  

 
 
MTZ009-010-012-014-046-048-049-054-222300-  
EAST SLOPES AND CENTRAL MONTANA  
 
CITY SKY/WX TMP DP RH WIND PRES REMARKS
 
CUT BANK PTSUNNY 51 39 63 N10 29.92F  
GREAT FALLS FAIR 66 44 45 N13 29.88S  
HELENA FAIR 76 32 20 VRB3 29.86F  
WHITE SULPHUR N/A 73 27 17 W12G17 29.90F  

 
 
MTZ011-013-016-021-045-047-050-051-222300-  
NORTH CENTRAL MONTANA  
 
CITY SKY/WX TMP DP RH WIND PRES REMARKS
 
HAVRE FAIR 56 46 69 CALM 29.91S  
LEWISTOWN FAIR 75 36 24 N12 29.88F  
N BAR RANCH FAIR 72 27 18 W5 29.93F  
CHINOOK N/A 61 48 63 CALM 29.90S  

 
 
MTZ017>020-022>027-061-062-222300-  
NORTHEAST MONTANA  
 
CITY SKY/WX TMP DP RH WIND PRES REMARKS
 
GLASGOW FAIR 70 47 43 NE8 29.87R  
GLENDIVE FAIR 79 43 27 NW13G18 29.83S  
JORDAN N/A 73 47 39 N14 29.85R  
MALTA SUNNY 61 48 63 NE6 29.89R  
SIDNEY FAIR 78 50 37 N15G21 29.81S  
WOLF POINT FAIR 63 47 55 NE21 29.89R  
POPLAR N/A 52 43 71 NE22G33 29.89R  
SCOBEY N/A 42 34 73 NE18 29.94  

 
 
MTZ028>42-056>058-222300-  
SOUTHCENTRAL AND SOUTHEAST MONTANA  
 
CITY SKY/WX TMP DP RH WIND PRES REMARKS
 
BAKER FAIR 83 33 16 W13G20 29.86F  
BILLINGS PTSUNNY 83 22 10 W5 29.85F  
LIVINGSTON FAIR 80 24 12 NW12 29.88F  
MILES CITY FAIR 83 38 20 NW6 29.83F  
BIG TIMBER SUNNY 77 21 12 W16 29.89F  

 
 
REGIONAL REPORTS...DAKOTAS  
 
CITY SKY/WX TMP DP RH WIND PRES REMARKS
 
WILLISTON FAIR 59 44 57 NE22G30 29.90R  
MINOT CLOUDY 47 40 76 NE18 29.99R  
DICKINSON FAIR 81 42 25 S15 29.82F  
BEACH FAIR 79 39 24 W15 29.86S  
CROSBY CLOUDY 41 41 100 E20G30 30.02S  
TIOGA CLOUDY 46 45 93 NE20G29 29.97R  
WATFORD CITY FAIR 68 50 52 E18 29.84S  
BISMARCK FAIR 72 52 49 SE7 29.88F  
GRAND FORKS PTSUNNY 57 49 74 N15 29.99F  
FARGO FAIR 69 51 52 S9 29.93F  
BUFFALO SD N/A 79 39 23 SW8 29.84F  
RAPID CITY FAIR 82 48 30 NE9 29.90S  

 
 
REGIONAL REPORTS...WYOMING/IDAHO/WASHINGTON  
 
CITY SKY/WX TMP DP RH WIND PRES REMARKS
 
GILLETTE FAIR 81 25 12 CALM 29.95F  
SHERIDAN FAIR 81 31 16 N7 29.90F  
BUFFALO WY FAIR 80 27 14 S9 29.98F  
CODY FAIR 77 20 12 E10G18 29.95F  
YELLOWSTONE LA N/A 63 16 16 W12G24 30.19F  
IDAHO FALLS FAIR 81 22 11 SW16 30.00F  
SALMON FAIR 79 25 13 VRB5 29.85F  
BOISE FAIR 81 27 14 NW9 29.91F  
SPOKANE PTSUNNY 66 38 35 SW21G30 29.92S  

 
 
REGIONAL REPORTS...ALBERTA  
 
CITY SKY/WX TMP DP RH WIND PRES REMARKS
 
CALGARY FRZ DRZL 34 32 93 E10 29.96F WCI 26  
CARDSTON N/A 41 39 93 N7 N/A  
FORT MCMURRAY SUNNY 50 9 18 SE8 30.15F  
HIGH LEVEL SUNNY 50 16 25 S7G17 30.02F  
LETHBRIDGE CLOUDY 39 34 81 W5 29.97S  
LLOYDMINSTER CLOUDY 36 25 64 SE14 30.16S WCI 27  
MEDICINE HAT DRIZZLE 41 39 93 NE8 29.97S FOG  
MILK RIVER N/A 43 39 87 N5 N/A  
PEACE RIVER PTSUNNY 45 27 49 S15 30.06S  
PINCHER CREEK CLOUDY 39 36 87 E6 29.94F  
RAYMOND N/A 39 36 87 N5 N/A  

 
 
REGIONAL REPORTS...SASKATCHEWAN  
 
CITY SKY/WX TMP DP RH WIND PRES REMARKS
 
CORONACH N/A 39 37 93 E15G22 N/A WCI 31  
ESTEVAN CLOUDY 37 36 93 E24G35 30.04R WCI 26  
MOOSE JAW N/A 36 32 87 E22G29 N/A WCI 24  
PRINCE ALBERT PTSUNNY 43 21 42 SE8G18 30.26F  
REGINA CLOUDY 34 30 86 E23G36 30.10S WCI 22  
ROCKGLEN N/A 37 36 93 E5 N/A  
SASKATOON FLURRIES 34 30 86 E17G24 30.20S WCI 23  
SWIFT CURRENT LGT RAIN 34 34 100 E20G26 30.00 FOG WCI 22  
VAL MARIE N/A 46 41 81 NE16 N/A  

 
 
 
CLICK HERE TO GO TO PREVIOUS BULLETINS.

The Nexlab MT Page Main Text Page